Date,TemperatureHighF,TemperatureAvgF,TemperatureLowF,DewpointHighF,DewpointAvgF,DewpointLowF,HumidityHigh,HumidityAvg,HumidityLow,PressureMaxIn,PressureMinIn,WindSpeedMaxMPH,WindSpeedAvgMPH,GustSpeedMaxMPH,PrecipitationSumIn
2013-12-1,47.2,42.2,35.0,44.7,38.4,28.8,97,87,76,30.44,29.97,9,0,0,0.01
2013-12-2,41.1,39.6,37.9,40.3,38.6,36.9,98,96,92,29.97,29.89,5,0,0,0.00
2013-12-3,47.9,38.9,32.8,40.2,36.4,31.1,98,91,70,29.92,29.81,9,1,0,0.00
2013-12-4,46.7,34.9,28.5,33.3,29.8,27.5,98,83,53,30.19,29.92,11,0,0,0.00
2013-12-5,56.0,44.4,29.3,55.4,43.2,27.5,100,96,91,30.20,29.89,14,0,14,0.00
2013-12-6,57.7,50.4,37.6,57.4,48.8,36.8,99,94,83,30.11,29.84,17,1,17,0.00
2013-12-7,42.2,35.4,28.6,36.9,30.0,20.8,98,81,62,30.43,30.04,16,1,16,0.04
2013-12-8,33.4,29.0,22.8,23.6,20.2,17.3,87,70,54,30.58,30.42,7,0,0,0.00
2013-12-9,43.7,37.5,30.1,43.7,36.5,23.3,100,96,71,30.47,29.85,13,1,13,0.01
2013-12-10,36.2,32.6,24.8,35.4,31.2,21.8,98,95,82,29.99,29.76,14,1,14,0.00
2013-12-11,31.3,26.2,20.9,24.0,21.0,19.0,94,81,66,30.22,30.00,11,2,18,0.00
2013-12-12,27.6,21.2,11.8,21.6,11.5,4.6,92,68,39,30.26,30.07,18,1,18,0.00
2013-12-13,32.4,23.5,15.2,18.9,13.3,8.4,80,65,49,30.35,29.99,17,0,17,0.00
2013-12-14,30.8,20.7,14.5,30.3,15.2,4.0,98,80,62,30.58,30.13,1,0,0,0.00
2013-12-15,42.0,31.6,25.0,42.0,30.1,22.4,100,94,82,30.12,29.30,17,1,17,0.01
2013-12-16,31.6,26.2,17.7,25.2,15.6,8.7,90,65,41,30.20,29.75,22,2,22,0.00
2013-12-17,32.9,21.5,8.8,32.6,18.5,6.5,99,88,68,30.27,29.86,8,0,0,0.00
2013-12-18,34.9,27.7,22.3,30.2,24.1,20.6,98,86,70,30.08,29.80,13,1,13,0.02
2013-12-19,45.1,33.8,24.2,31.6,26.3,20.5,87,74,56,30.11,29.94,22,1,22,0.19
2013-12-20,53.9,42.0,31.0,42.2,35.1,28.0,91,77,59,30.12,29.91,17,2,17,0.04
2013-12-21,59.5,52.4,46.4,53.7,48.1,40.0,95,86,73,29.97,29.86,15,3,15,0.00
2013-12-22,62.1,51.0,39.8,60.3,49.8,39.3,100,96,82,30.00,29.79,26,2,26,0.00
2013-12-23,41.6,38.3,34.4,41.6,38.2,34.3,100,100,98,30.07,29.93,6,0,0,0.56
2013-12-24,39.2,33.8,28.9,38.5,27.3,18.6,98,77,63,30.17,30.01,13,2,13,0.01
2013-12-25,29.4,20.9,16.6,21.1,11.2,5.2,83,66,55,30.54,30.17,21,2,21,0.00
2013-12-26,38.3,30.5,17.7,36.2,27.1,12.3,98,87,76,30.48,30.05,12,1,12,0.09
2013-12-27,36.6,29.6,25.0,25.6,22.8,20.3,92,76,56,30.27,30.17,22,1,22,0.01
2013-12-28,49.7,35.9,26.3,33.3,27.4,22.0,85,72,47,30.22,29.98,13,2,24,0.00
2013-12-29,45.2,39.9,30.4,42.6,36.5,26.4,99,88,74,30.03,29.32,22,1,22,0.91
2013-12-30,43.7,35.2,22.9,38.8,27.7,14.7,98,76,46,30.13,29.46,16,2,21,0.00
2013-12-31,27.5,21.5,17.9,16.7,10.2,3.6,80,62,46,30.16,30.02,13,1,13,0.00